SENTINEL-2B

Last updated on Mon Sep 07 2026 00:02:46 GMT+0000 (Coordinated Universal Time)

1 42063U 17013A 26249.60607904 .00000363 00000+0 15504-3 0 9991 2 42063 98.5632 323.2072 0001222 87.5639 272.5683 14.30819533496283
UTC large
Height (km)
Speed (km/s)
/
Latitude / Longitude
Inclination (degrees)
Orbital Period (minutes)
Azimuth
Elevation
Range (km)
Doppler Factor

Next 0 passes for location: London (51.5072 / 0.1276)

No passes found over London.
SENTINEL-2B